Hourly Data Report for September 01, 2003

SHERBROOKE A
QUEBEC

45°26'00.000" N
71°41'00.000" W
241.40 m
7028124
71610
YSC

Download Data

Hourly Data (September 2003)
Hourly Data Report for September 1, 2003
TIME
LST
Temp Definition
°C
Dew Point Definition
°C
Rel Hum Definition
%
Precip. Amount Definition
mm

Wind Dir Definition
10's deg

Wind Spd Definition
km/h
Visibility Definition
km
Stn Press Definition
kPa
Hmdx Definition


Wind Chill Definition


Weather Definition


00:00 10.1 8.0 87   24 6 15.0 99.42      
01:00 9.0 7.8 92   28 4 15.0 99.40      
02:00 7.5 6.7 95   11 4 15.0 99.35      
03:00 7.6 6.9 95     0 15.0 99.34      
04:00 8.6 7.8 95   19 6 15.0 99.31      
05:00 8.0 7.3 95     0 15.0 99.31      
06:00 8.8 8.0 95     0 15.0 99.32      
07:00 12.9 10.7 86   21 4 24.1 99.32     Mostly Cloudy
08:00 16.2 11.1 72   23 11 24.1 99.27     Mostly Cloudy
09:00 18.0 11.1 64   21 13 24.1 99.27     Mainly Clear
10:00 18.4 11.3 63   23 15 24.1 99.26     Mainly Clear
11:00 20.8 11.1 54   24 19 24.1 99.20     Mainly Clear
12:00 20.6 11.2 55   24 19 24.1 99.10     Mostly Cloudy
13:00 21.2 11.5 54   20 22 24.1 99.09     Mostly Cloudy
14:00 20.2 12.1 60   24 15 24.1 99.08     Mostly Cloudy
15:00 19.8 11.7 60   26 19 24.1 99.08     Mostly Cloudy
16:00 19.7 12.1 62   27 22 24.1 99.06     Mostly Cloudy
17:00 18.8 12.2 65   27 13 15.0 99.06      
18:00 17.0 13.0 77     0 15.0 99.08      
19:00 15.2 12.6 84   21 7 15.0 99.15      
20:00 15.6 12.7 83   24 9 15.0 99.19      
21:00 15.4 12.8 84   4 7 15.0 99.24      
22:00 14.5 11.5 82   5 7 15.0 99.27      
23:00 12.5 11.3 92     0 15.0 99.29      

Notes on Data Quality.

Legend

  • E = Estimated
  • M = Missing
  • NA = Not Available*
  • [empty] = Indicates an unobserved value
Date modified: